AFR42Y GOBD-LFPG

Flight info

Callsign AFR42Y
Flight time 3h 3m
Altitude 39000
Route SAKLI1B SAKLI DCT SEPEL UR975 DIDAN/N0471F400 UR975 ADM UR724 OSLAD DCT OBOLO DCT VFA DCT MARIM DCT ALAGU DCT ELVAR DCT BARDI N873 DELOG DCT PEXOD DCT YURZI DCT NTS/N0405F300 UN741 KEPER KEPER9P
Aircraft B772/H-SDE2E3FGHIJ5LORVWXY/LB1D1

Departure

Time 2026-04-26 09:15
Airport Blaise Diagne International Airport (GOBD)

Arrival

Time 2026-04-26 12:19
Airport Charles de Gaulle International Airport (LFPG)
Time Latitude Longitude Altitude Speed Heading
2026-04-26 08:48 14.67079 -17.06861 276 ft 0 kts 90°
2026-04-26 09:04 14.67079 -17.06873 280 ft 3 kts 93°
2026-04-26 09:05 14.67081 -17.06894 283 ft 3 kts 100°
2026-04-26 09:05 14.67086 -17.06914 279 ft 3 kts 108°
2026-04-26 09:05 14.67093 -17.06933 280 ft 3 kts 117°
2026-04-26 09:05 14.67103 -17.06951 281 ft 3 kts 129°
2026-04-26 09:06 14.67116 -17.06965 284 ft 3 kts 144°
2026-04-26 09:06 14.67132 -17.06975 276 ft 3 kts 165°
2026-04-26 09:06 14.67146 -17.06978 276 ft 0 kts 180°
2026-04-26 09:08 14.67132 -17.06978 276 ft 6 kts 180°
2026-04-26 09:09 14.67087 -17.06998 276 ft 7 kts 229°
2026-04-26 09:09 14.67077 -17.07056 273 ft 10 kts 256°
2026-04-26 09:09 14.67022 -17.07091 271 ft 10 kts 176°
2026-04-26 09:09 14.66951 -17.07090 271 ft 11 kts 179°
2026-04-26 09:10 14.66874 -17.07088 271 ft 11 kts 179°
2026-04-26 09:10 14.66796 -17.07086 271 ft 11 kts 178°
2026-04-26 09:10 14.66718 -17.07084 272 ft 11 kts 178°
2026-04-26 09:10 14.66639 -17.07083 272 ft 12 kts 184°
2026-04-26 09:11 14.66553 -17.07087 271 ft 13 kts 178°
2026-04-26 09:11 14.66464 -17.07085 270 ft 13 kts 179°
2026-04-26 09:11 14.66369 -17.07084 270 ft 14 kts 180°
2026-04-26 09:11 14.66273 -17.07084 270 ft 14 kts 179°
2026-04-26 09:12 14.66176 -17.07082 270 ft 14 kts 179°
2026-04-26 09:12 14.66077 -17.07081 270 ft 15 kts 180°
2026-04-26 09:12 14.65976 -17.07081 269 ft 15 kts 179°
2026-04-26 09:12 14.65875 -17.07080 270 ft 15 kts 179°
2026-04-26 09:13 14.65774 -17.07078 270 ft 15 kts 179°
2026-04-26 09:13 14.65673 -17.07077 270 ft 15 kts 182°
2026-04-26 09:13 14.65620 -17.07152 269 ft 15 kts 268°
2026-04-26 09:13 14.65619 -17.07258 269 ft 7 kts 280°
2026-04-26 09:14 14.65638 -17.07272 271 ft 1 kts 356°
2026-04-26 09:14 14.65650 -17.07271 269 ft 2 kts
2026-04-26 09:14 14.65672 -17.07270 268 ft 4 kts
2026-04-26 09:14 14.65718 -17.07270 268 ft 19 kts
2026-04-26 09:15 14.66115 -17.07272 266 ft 97 kts 359°
2026-04-26 09:15 14.67031 -17.07285 306 ft 162 kts 358°
2026-04-26 09:15 14.68233 -17.07308 935 ft 179 kts
2026-04-26 09:15 14.69527 -17.07132 1601 ft 195 kts 20°
2026-04-26 09:16 14.70802 -17.06503 2023 ft 215 kts 23°
2026-04-26 09:16 14.72198 -17.05839 2530 ft 225 kts 22°
2026-04-26 09:16 14.73647 -17.05163 3140 ft 233 kts 21°
2026-04-26 09:16 14.75166 -17.04459 3639 ft 248 kts 21°
2026-04-26 09:17 14.76793 -17.03711 4112 ft 261 kts 21°
2026-04-26 09:17 14.77909 -17.03199 4473 ft 267 kts 21°
2026-04-26 09:17 14.80217 -17.02144 5326 ft 276 kts 21°
2026-04-26 09:17 14.81993 -17.01337 5979 ft 282 kts 21°
2026-04-26 09:18 14.83809 -17.00514 6610 ft 289 kts 21°
2026-04-26 09:18 14.85668 -16.99673 7224 ft 294 kts 22°
2026-04-26 09:18 14.87554 -16.98821 7859 ft 298 kts 22°
2026-04-26 09:18 14.89470 -16.97958 8460 ft 303 kts 22°
2026-04-26 09:19 14.91413 -16.97080 9125 ft 306 kts 23°
2026-04-26 09:19 14.93385 -16.96191 9710 ft 311 kts 23°
2026-04-26 09:19 14.95375 -16.95294 10254 ft 316 kts 23°
2026-04-26 09:19 14.97454 -16.94358 10417 ft 336 kts 23°
2026-04-26 09:20 14.99636 -16.93375 10813 ft 347 kts 23°
2026-04-26 09:20 15.01848 -16.92378 11396 ft 355 kts 23°
2026-04-26 09:20 15.03373 -16.91691 11884 ft 358 kts 23°
2026-04-26 09:20 15.06406 -16.90323 13045 ft 362 kts 22°
2026-04-26 09:21 15.08731 -16.89276 13868 ft 366 kts 22°
2026-04-26 09:21 15.11083 -16.88216 14634 ft 370 kts 22°
2026-04-26 09:21 15.13451 -16.87148 15461 ft 372 kts 21°
2026-04-26 09:21 15.15833 -16.86074 16286 ft 375 kts 21°
2026-04-26 09:22 15.17449 -16.85345 16832 ft 377 kts 21°
2026-04-26 09:22 15.19861 -16.84256 17601 ft 380 kts 20°
2026-04-26 09:22 15.22298 -16.83156 18351 ft 384 kts 20°
2026-04-26 09:22 15.24759 -16.82046 18969 ft 388 kts 20°
2026-04-26 09:23 15.27249 -16.80923 19561 ft 392 kts 20°
2026-04-26 09:23 15.29763 -16.79788 20151 ft 397 kts 20°
2026-04-26 09:23 15.32273 -16.78654 20739 ft 401 kts 20°
2026-04-26 09:23 15.34841 -16.77493 21308 ft 405 kts 20°
2026-04-26 09:24 15.37439 -16.76319 21889 ft 409 kts 20°
2026-04-26 09:24 15.40053 -16.75137 22447 ft 413 kts 19°
2026-04-26 09:24 15.42700 -16.73940 22981 ft 417 kts 19°
2026-04-26 09:24 15.45371 -16.72732 23517 ft 421 kts 19°
2026-04-26 09:25 15.48069 -16.71511 23971 ft 424 kts 19°
2026-04-26 09:25 15.50779 -16.70283 24474 ft 426 kts 19°
2026-04-26 09:25 15.53504 -16.69049 24970 ft 428 kts 19°
2026-04-26 09:25 15.56249 -16.67805 25456 ft 431 kts 19°
2026-04-26 09:26 15.59003 -16.66557 25925 ft 434 kts 18°
2026-04-26 09:26 15.61783 -16.65297 26402 ft 437 kts 18°
2026-04-26 09:26 15.64574 -16.64032 26883 ft 439 kts 18°
2026-04-26 09:26 15.67385 -16.62758 27373 ft 442 kts 18°
2026-04-26 09:27 15.70207 -16.61477 27866 ft 444 kts 18°
2026-04-26 09:27 15.73051 -16.60186 28336 ft 447 kts 17°
2026-04-26 09:27 15.75909 -16.58889 28836 ft 450 kts 17°
2026-04-26 09:27 15.78788 -16.57582 29310 ft 453 kts 17°
2026-04-26 09:28 15.81681 -16.56268 29785 ft 455 kts 17°
2026-04-26 09:28 15.84593 -16.54945 30222 ft 458 kts 17°
2026-04-26 09:28 15.87518 -16.53615 30604 ft 461 kts 17°
2026-04-26 09:28 15.90435 -16.52289 30951 ft 465 kts 17°
2026-04-26 09:29 15.93406 -16.50937 31309 ft 468 kts 17°
2026-04-26 09:29 15.96405 -16.49571 31669 ft 471 kts 17°
2026-04-26 09:29 15.99413 -16.48202 32002 ft 475 kts 17°
2026-04-26 09:29 16.02449 -16.46817 32319 ft 479 kts 18°
2026-04-26 09:30 16.05458 -16.45251 32620 ft 487 kts 23°
2026-04-26 09:30 16.08331 -16.43325 32948 ft 496 kts 29°
2026-04-26 09:30 16.11135 -16.41210 33256 ft 499 kts 30°
2026-04-26 09:30 16.13950 -16.39083 33558 ft 502 kts 30°
2026-04-26 09:31 16.16786 -16.36949 33848 ft 505 kts 30°
2026-04-26 09:31 16.19642 -16.34813 34099 ft 507 kts 30°
2026-04-26 09:31 16.22519 -16.32671 34339 ft 510 kts 30°
2026-04-26 09:31 16.25411 -16.30524 34564 ft 512 kts 30°
2026-04-26 09:32 16.28318 -16.28368 34813 ft 513 kts 30°
2026-04-26 09:32 16.31228 -16.26211 35130 ft 513 kts 30°
2026-04-26 09:32 16.34135 -16.24055 35458 ft 513 kts 30°
2026-04-26 09:32 16.37040 -16.21899 35777 ft 513 kts 30°
2026-04-26 09:33 16.39942 -16.19745 36069 ft 513 kts 30°
2026-04-26 09:33 16.42850 -16.17586 36377 ft 513 kts 30°
2026-04-26 09:33 16.45751 -16.15431 36670 ft 513 kts 30°
2026-04-26 09:33 16.48657 -16.13271 36973 ft 512 kts 30°
2026-04-26 09:34 16.51557 -16.11115 37249 ft 513 kts 30°
2026-04-26 09:34 16.54461 -16.08955 37532 ft 513 kts 30°
2026-04-26 09:34 16.57363 -16.06796 37815 ft 513 kts 30°
2026-04-26 09:34 16.60231 -16.04661 38091 ft 513 kts 30°
2026-04-26 09:35 16.63130 -16.02503 38313 ft 513 kts 30°
2026-04-26 09:35 16.66033 -16.00341 38569 ft 513 kts 30°
2026-04-26 09:35 16.68936 -15.98178 38786 ft 513 kts 30°
2026-04-26 09:36 16.74782 -15.93821 38902 ft 519 kts 30°
2026-04-26 09:36 16.80642 -15.89447 38907 ft 515 kts 30°
2026-04-26 09:37 16.86437 -15.85115 38920 ft 511 kts 30°
2026-04-26 09:37 16.92215 -15.80798 38915 ft 510 kts 30°
2026-04-26 09:38 16.97993 -15.76479 38915 ft 511 kts 30°
2026-04-26 09:38 17.03775 -15.72152 38911 ft 512 kts 30°
2026-04-26 09:39 17.09533 -15.67840 38915 ft 513 kts 30°
2026-04-26 09:39 17.15380 -15.63456 38916 ft 515 kts 30°
2026-04-26 09:40 17.21170 -15.59112 38917 ft 516 kts 30°
2026-04-26 09:40 17.27011 -15.54727 38906 ft 517 kts 30°
2026-04-26 09:41 17.32860 -15.50332 38908 ft 518 kts 30°
2026-04-26 09:41 17.38721 -15.45924 38905 ft 519 kts 30°
2026-04-26 09:42 17.44579 -15.41514 38902 ft 519 kts 30°
2026-04-26 09:42 17.50444 -15.37096 38905 ft 519 kts 30°
2026-04-26 09:43 17.56308 -15.32676 38895 ft 519 kts 30°
2026-04-26 09:43 17.62166 -15.28254 38899 ft 519 kts 30°
2026-04-26 09:44 17.68032 -15.23825 38908 ft 519 kts 30°
2026-04-26 09:44 17.73898 -15.19392 38902 ft 520 kts 30°
2026-04-26 09:45 17.79768 -15.14952 38889 ft 521 kts 30°
2026-04-26 09:45 17.85651 -15.10498 38898 ft 521 kts 30°
2026-04-26 09:46 17.91546 -15.06044 38892 ft 522 kts 30°
2026-04-26 09:46 17.97443 -15.01585 38894 ft 523 kts 30°
2026-04-26 09:47 18.03351 -14.97113 38893 ft 524 kts 30°
2026-04-26 09:47 18.09262 -14.92631 38891 ft 525 kts 30°
2026-04-26 09:48 18.15181 -14.88140 38899 ft 525 kts 30°
2026-04-26 09:48 18.21114 -14.83636 38887 ft 526 kts 30°
2026-04-26 09:49 18.27055 -14.79121 38882 ft 527 kts 30°
2026-04-26 09:49 18.32995 -14.74602 38886 ft 527 kts 30°
2026-04-26 09:50 18.38898 -14.70107 38889 ft 527 kts 30°
2026-04-26 09:50 18.44846 -14.65576 38888 ft 528 kts 30°
2026-04-26 09:51 18.50796 -14.61039 38887 ft 528 kts 30°
2026-04-26 09:51 18.56757 -14.56488 38886 ft 529 kts 30°
2026-04-26 09:52 18.62724 -14.51930 38889 ft 530 kts 30°
2026-04-26 09:52 18.71682 -14.45078 38882 ft 531 kts 30°
2026-04-26 09:53 18.77656 -14.40505 38891 ft 531 kts 30°
2026-04-26 09:53 18.83649 -14.35912 38887 ft 532 kts 30°
2026-04-26 09:54 18.89634 -14.31321 38889 ft 532 kts 30°
2026-04-26 09:54 18.95592 -14.26747 38890 ft 533 kts 30°
2026-04-26 09:55 19.01589 -14.22138 38893 ft 533 kts 30°
2026-04-26 09:55 19.07595 -14.17520 38891 ft 534 kts 30°
2026-04-26 09:56 19.13599 -14.12897 38893 ft 534 kts 30°
2026-04-26 09:56 19.19617 -14.08260 38901 ft 535 kts 30°
2026-04-26 09:57 19.25631 -14.03622 38899 ft 535 kts 30°
2026-04-26 09:57 19.31611 -13.99006 38908 ft 536 kts 30°
2026-04-26 09:58 19.37635 -13.94351 38905 ft 536 kts 30°
2026-04-26 09:58 19.43667 -13.89686 38903 ft 537 kts 30°
2026-04-26 09:59 19.48718 -13.85775 38909 ft 537 kts 30°
2026-04-26 09:59 19.55734 -13.80339 38910 ft 537 kts 30°
2026-04-26 10:00 19.61770 -13.75657 38914 ft 538 kts 30°
2026-04-26 10:00 19.67810 -13.70968 38919 ft 538 kts 30°
2026-04-26 10:01 19.73853 -13.66272 38904 ft 539 kts 30°
2026-04-26 10:01 19.79901 -13.61568 38912 ft 539 kts 30°
2026-04-26 10:02 19.85953 -13.56855 38925 ft 540 kts 30°
2026-04-26 10:02 19.92010 -13.52135 38922 ft 540 kts 30°
2026-04-26 10:03 19.98073 -13.47406 38922 ft 541 kts 30°
2026-04-26 10:03 20.04079 -13.42716 38924 ft 541 kts 30°
2026-04-26 10:04 20.10151 -13.37970 38926 ft 542 kts 30°
2026-04-26 10:04 20.16233 -13.33211 38920 ft 543 kts 30°
2026-04-26 10:05 20.22322 -13.28441 38932 ft 543 kts 30°
2026-04-26 10:05 20.28402 -13.23674 38961 ft 543 kts 30°
2026-04-26 10:06 20.34482 -13.18902 38974 ft 543 kts 30°
2026-04-26 10:06 20.40559 -13.14128 38995 ft 543 kts 30°
2026-04-26 10:07 20.46676 -13.09443 38995 ft 537 kts 25°
2026-04-26 10:07 20.53290 -13.05994 39007 ft 523 kts 13°
2026-04-26 10:08 20.60194 -13.03896 39003 ft 512 kts
2026-04-26 10:08 20.67133 -13.02141 38994 ft 513 kts
2026-04-26 10:09 20.72911 -13.00649 38983 ft 514 kts
2026-04-26 10:09 20.80994 -12.98521 38967 ft 515 kts
2026-04-26 10:10 20.86832 -12.96971 38952 ft 516 kts
2026-04-26 10:10 20.94918 -12.94822 38970 ft 515 kts
2026-04-26 10:11 21.00749 -12.93274 38964 ft 515 kts
2026-04-26 10:11 21.07708 -12.91426 38967 ft 515 kts
2026-04-26 10:12 21.14662 -12.89578 38968 ft 515 kts
2026-04-26 10:12 21.21618 -12.87728 38967 ft 514 kts
2026-04-26 10:13 21.28568 -12.85877 38972 ft 514 kts
2026-04-26 10:13 21.35508 -12.84027 38972 ft 514 kts
2026-04-26 10:14 21.42408 -12.82186 38976 ft 514 kts
2026-04-26 10:14 21.49399 -12.80319 38974 ft 514 kts
2026-04-26 10:15 21.56305 -12.78472 38979 ft 515 kts
2026-04-26 10:15 21.63254 -12.76613 38978 ft 515 kts
2026-04-26 10:16 21.70199 -12.74752 38976 ft 515 kts
2026-04-26 10:16 21.77157 -12.72887 38980 ft 515 kts
2026-04-26 10:17 21.84104 -12.71022 38977 ft 515 kts
2026-04-26 10:17 21.91056 -12.69153 38981 ft 515 kts
2026-04-26 10:18 21.98009 -12.67283 38981 ft 515 kts
2026-04-26 10:18 22.04957 -12.65412 38986 ft 515 kts
2026-04-26 10:19 22.11906 -12.63540 38989 ft 514 kts
2026-04-26 10:19 22.18848 -12.61667 38984 ft 514 kts
2026-04-26 10:20 22.25791 -12.59792 38991 ft 514 kts
2026-04-26 10:20 22.32678 -12.57930 38995 ft 514 kts
2026-04-26 10:21 22.39610 -12.56054 38984 ft 514 kts
2026-04-26 10:21 22.46545 -12.54175 38992 ft 513 kts
2026-04-26 10:22 22.53472 -12.52297 38989 ft 513 kts
2026-04-26 10:22 22.60403 -12.50415 38998 ft 513 kts
2026-04-26 10:23 22.67329 -12.48533 39002 ft 513 kts
2026-04-26 10:23 22.74262 -12.46647 38996 ft 513 kts
2026-04-26 10:24 22.81124 -12.44383 39001 ft 518 kts 10°
2026-04-26 10:24 22.87944 -12.41848 39005 ft 518 kts 11°
2026-04-26 10:25 22.94763 -12.39321 39007 ft 517 kts 10°
2026-04-26 10:25 23.01583 -12.36820 39007 ft 517 kts 10°
2026-04-26 10:26 23.08399 -12.34328 39005 ft 517 kts 10°
2026-04-26 10:26 23.15213 -12.31833 39004 ft 516 kts 10°
2026-04-26 10:27 23.22024 -12.29335 39006 ft 516 kts 10°
2026-04-26 10:27 23.28825 -12.26837 39003 ft 516 kts 10°
2026-04-26 10:28 23.35576 -12.24354 39005 ft 515 kts 10°
2026-04-26 10:28 23.42359 -12.21858 39004 ft 515 kts 10°
2026-04-26 10:29 23.49139 -12.19362 39007 ft 514 kts 10°
2026-04-26 10:29 23.55916 -12.16870 38993 ft 513 kts 10°
2026-04-26 10:30 23.62675 -12.14381 39005 ft 512 kts 10°
2026-04-26 10:30 23.69426 -12.11893 39004 ft 512 kts 10°
2026-04-26 10:31 23.76170 -12.09404 39011 ft 511 kts 10°
2026-04-26 10:31 23.82901 -12.06917 39007 ft 510 kts 10°
2026-04-26 10:32 23.89617 -12.04432 39008 ft 510 kts 10°
2026-04-26 10:32 23.96331 -12.01946 39006 ft 509 kts 10°
2026-04-26 10:33 24.03031 -11.99462 39005 ft 508 kts 10°
2026-04-26 10:33 24.09727 -11.96977 39003 ft 508 kts 10°
2026-04-26 10:34 24.16412 -11.94493 39002 ft 507 kts 10°
2026-04-26 10:34 24.23049 -11.92024 39004 ft 507 kts 10°
2026-04-26 10:35 24.29726 -11.89538 39004 ft 506 kts 11°
2026-04-26 10:35 24.36388 -11.87054 39003 ft 506 kts 11°
2026-04-26 10:36 24.43052 -11.84568 39004 ft 505 kts 11°
2026-04-26 10:36 24.49703 -11.82083 39001 ft 505 kts 11°
2026-04-26 10:37 24.56352 -11.79596 39003 ft 505 kts 11°
2026-04-26 10:37 24.62996 -11.77108 39001 ft 504 kts 11°
2026-04-26 10:38 24.69639 -11.74618 38999 ft 504 kts 11°
2026-04-26 10:38 24.76267 -11.72129 39001 ft 504 kts 11°
2026-04-26 10:39 24.82901 -11.69637 38998 ft 503 kts 11°
2026-04-26 10:39 24.89524 -11.67146 38995 ft 503 kts 11°
2026-04-26 10:40 24.96147 -11.64652 39000 ft 503 kts 11°
2026-04-26 10:40 25.02764 -11.62157 38999 ft 502 kts 11°
2026-04-26 10:41 25.09375 -11.59661 38996 ft 502 kts 11°
2026-04-26 10:41 25.15938 -11.57181 38999 ft 502 kts 11°
2026-04-26 10:42 25.22534 -11.54682 38995 ft 501 kts 12°
2026-04-26 10:42 25.29094 -11.52028 38993 ft 503 kts 13°
2026-04-26 10:43 25.35623 -11.49289 38996 ft 502 kts 13°
2026-04-26 10:43 25.42168 -11.46552 38999 ft 502 kts 13°
2026-04-26 10:44 25.48701 -11.43841 38998 ft 502 kts 13°
2026-04-26 10:44 25.55241 -11.41132 39001 ft 501 kts 13°
2026-04-26 10:45 25.61771 -11.38424 39000 ft 501 kts 13°
2026-04-26 10:45 25.68298 -11.35713 38996 ft 501 kts 13°
2026-04-26 10:46 25.74820 -11.33000 38996 ft 501 kts 13°
2026-04-26 10:46 25.81345 -11.30283 38992 ft 501 kts 13°
2026-04-26 10:47 25.87867 -11.27564 38997 ft 500 kts 13°
2026-04-26 10:47 25.94380 -11.24845 38999 ft 500 kts 13°
2026-04-26 10:48 26.00894 -11.22123 38994 ft 500 kts 13°
2026-04-26 10:48 26.07400 -11.19400 38996 ft 500 kts 14°
2026-04-26 10:49 26.13905 -11.16676 38993 ft 499 kts 14°
2026-04-26 10:49 26.20410 -11.13948 38978 ft 499 kts 14°
2026-04-26 10:50 26.25806 -11.11682 38983 ft 499 kts 14°
2026-04-26 10:50 26.33352 -11.08510 38974 ft 498 kts 14°
2026-04-26 10:51 26.43086 -11.04412 38975 ft 498 kts 14°
2026-04-26 10:52 26.49570 -11.01677 38968 ft 498 kts 14°
2026-04-26 10:52 26.56050 -10.98942 38963 ft 498 kts 14°
2026-04-26 10:53 26.62532 -10.96202 38955 ft 498 kts 14°
2026-04-26 10:53 26.69012 -10.93460 38954 ft 498 kts 14°
2026-04-26 10:54 26.78714 -10.89347 38946 ft 498 kts 15°
2026-04-26 10:54 26.85194 -10.86596 38942 ft 497 kts 15°
2026-04-26 10:55 26.91655 -10.83850 38937 ft 497 kts 15°
2026-04-26 10:55 26.97027 -10.81564 38932 ft 497 kts 15°
2026-04-26 10:56 27.04581 -10.78346 38929 ft 496 kts 15°
2026-04-26 10:56 27.11027 -10.75596 38926 ft 496 kts 15°
2026-04-26 10:57 27.17478 -10.72841 38919 ft 496 kts 15°
2026-04-26 10:57 27.22840 -10.70548 38918 ft 495 kts 15°
2026-04-26 10:58 27.32062 -10.66599 38920 ft 495 kts 15°
2026-04-26 10:58 27.57769 -10.55552 38885 ft 494 kts 16°
2026-04-26 10:59 27.83525 -10.44699 38900 ft 492 kts 15°
2026-04-26 10:59 28.09223 -10.33970 38894 ft 492 kts 16°
2026-04-26 11:00 28.34914 -10.23184 38902 ft 493 kts 16°
2026-04-26 11:00 28.60647 -10.12323 38908 ft 493 kts 16°
2026-04-26 11:01 28.86413 -10.01391 38913 ft 494 kts 17°
2026-04-26 11:01 29.12161 -9.90387 38916 ft 494 kts 17°
2026-04-26 11:02 29.37853 -9.79317 38908 ft 493 kts 17°
2026-04-26 11:02 29.63323 -9.68284 38901 ft 492 kts 18°
2026-04-26 11:03 29.88845 -9.57162 38897 ft 490 kts 18°
2026-04-26 11:03 30.14331 -9.46089 38893 ft 488 kts 18°
2026-04-26 11:04 30.40019 -9.40330 38900 ft 468 kts 342°
2026-04-26 11:04 30.65343 -9.47597 38919 ft 470 kts 343°
2026-04-26 11:05 30.90770 -9.54793 38922 ft 470 kts 343°
2026-04-26 11:05 31.16149 -9.61969 38941 ft 468 kts 343°
2026-04-26 11:06 31.41638 -9.67948 38927 ft 475 kts
2026-04-26 11:06 31.54600 -9.64628 38939 ft 478 kts 11°
2026-04-26 11:06 31.67486 -9.60849 38945 ft 477 kts 11°
2026-04-26 11:07 31.93226 -9.53434 38936 ft 476 kts 11°
2026-04-26 11:07 32.18872 -9.45997 38950 ft 473 kts 11°
2026-04-26 11:08 32.44420 -9.38545 38968 ft 472 kts 11°
2026-04-26 11:08 32.69726 -9.31121 38986 ft 471 kts 11°
2026-04-26 11:09 32.95133 -9.23623 38982 ft 470 kts 11°
2026-04-26 11:09 33.20208 -9.16183 38986 ft 469 kts 11°
2026-04-26 11:10 33.45570 -9.08665 39016 ft 475 kts 12°
2026-04-26 11:10 33.58537 -9.04800 39038 ft 486 kts 13°
2026-04-26 11:10 33.71755 -9.00848 39012 ft 490 kts 13°
2026-04-26 11:11 33.97797 -8.93025 38941 ft 473 kts 13°
2026-04-26 11:11 34.23469 -8.85266 39043 ft 484 kts 13°
2026-04-26 11:12 34.49812 -8.77247 38981 ft 485 kts 13°
2026-04-26 11:12 34.62752 -8.73275 38976 ft 473 kts 13°
2026-04-26 11:12 34.75454 -8.69365 38997 ft 471 kts 13°
2026-04-26 11:13 35.01169 -8.61413 39053 ft 484 kts 13°
2026-04-26 11:13 35.27327 -8.53268 39017 ft 481 kts 13°
2026-04-26 11:14 35.39962 -8.49311 39001 ft 468 kts 13°
2026-04-26 11:14 35.52697 -8.45318 39036 ft 467 kts 12°
2026-04-26 11:14 35.78239 -8.37260 39094 ft 482 kts 12°
2026-04-26 11:15 36.03888 -8.29110 39027 ft 469 kts 12°
2026-04-26 11:15 36.28923 -8.21094 39054 ft 462 kts 13°
2026-04-26 11:16 36.54023 -8.13003 39122 ft 474 kts 13°
2026-04-26 11:16 36.79606 -8.04656 39046 ft 465 kts 13°
2026-04-26 11:17 37.04474 -7.96487 39072 ft 460 kts 13°
2026-04-26 11:17 37.29568 -7.88152 39110 ft 475 kts 13°
2026-04-26 11:18 37.54979 -7.79650 39058 ft 462 kts 13°
2026-04-26 11:18 37.76060 -7.72550 39594 ft 470 kts 13°
2026-04-26 11:19 37.79224 -7.71481 39773 ft 471 kts 13°
2026-04-26 11:19 37.82393 -7.70408 39950 ft 472 kts 13°
2026-04-26 11:19 37.85563 -7.69335 40156 ft 473 kts 13°
2026-04-26 11:19 37.88747 -7.68255 40378 ft 473 kts 13°
2026-04-26 11:20 37.91926 -7.67177 40575 ft 473 kts 13°
2026-04-26 11:20 37.94033 -7.66461 40702 ft 473 kts 13°
2026-04-26 11:20 37.98288 -7.65015 40949 ft 474 kts 13°
2026-04-26 11:20 38.04230 -7.62993 41054 ft 479 kts 13°
2026-04-26 11:21 38.30049 -7.54181 41068 ft 480 kts 13°
2026-04-26 11:21 38.42750 -7.49821 41016 ft 466 kts 13°
2026-04-26 11:21 38.55259 -7.45517 41083 ft 466 kts 13°
2026-04-26 11:22 38.64989 -7.42157 41079 ft 476 kts 13°
2026-04-26 11:22 38.71417 -7.39931 41076 ft 479 kts 13°
2026-04-26 11:23 38.77843 -7.37701 41071 ft 479 kts 13°
2026-04-26 11:23 38.84283 -7.35461 41079 ft 479 kts 13°
2026-04-26 11:24 38.90707 -7.33224 41075 ft 478 kts 13°
2026-04-26 11:24 38.97124 -7.30985 41079 ft 477 kts 13°
2026-04-26 11:25 39.03519 -7.28750 41085 ft 475 kts 13°
2026-04-26 11:25 39.09886 -7.26520 41077 ft 474 kts 13°
2026-04-26 11:26 39.16252 -7.24286 41078 ft 473 kts 13°
2026-04-26 11:26 39.22555 -7.21821 41076 ft 475 kts 20°
2026-04-26 11:27 39.28369 -7.18155 41094 ft 476 kts 26°
2026-04-26 11:27 39.34240 -7.14188 41098 ft 476 kts 26°
2026-04-26 11:28 39.55921 -6.99735 41110 ft 477 kts 25°
2026-04-26 11:28 39.79562 -6.83906 41118 ft 478 kts 26°
2026-04-26 11:29 40.03189 -6.67960 41106 ft 479 kts 26°
2026-04-26 11:29 40.26876 -6.51848 41122 ft 479 kts 26°
2026-04-26 11:30 40.46521 -6.38386 41124 ft 479 kts 26°
2026-04-26 11:30 40.74035 -6.19412 41134 ft 478 kts 26°
2026-04-26 11:31 40.97546 -6.03074 41133 ft 476 kts 26°
2026-04-26 11:31 41.20917 -5.86700 41154 ft 475 kts 26°
2026-04-26 11:32 41.44233 -5.70229 41148 ft 474 kts 26°
2026-04-26 11:32 41.68184 -5.55417 41146 ft 472 kts 21°
2026-04-26 11:33 41.92190 -5.41833 41169 ft 472 kts 21°
2026-04-26 11:33 42.16363 -5.28008 41181 ft 472 kts 21°
2026-04-26 11:34 42.40545 -5.14062 41172 ft 473 kts 21°
2026-04-26 11:34 42.64755 -4.99981 41168 ft 474 kts 22°
2026-04-26 11:35 42.89030 -4.85747 41174 ft 475 kts 22°
2026-04-26 11:35 43.09220 -4.73812 41176 ft 475 kts 22°
2026-04-26 11:36 43.37592 -4.56893 41191 ft 475 kts 22°
2026-04-26 11:36 43.61814 -4.42320 41208 ft 474 kts 22°
2026-04-26 11:37 43.85981 -4.27654 41208 ft 475 kts 22°
2026-04-26 11:37 44.10162 -4.12848 41215 ft 475 kts 22°
2026-04-26 11:38 44.34209 -3.97643 41189 ft 477 kts 30°
2026-04-26 11:38 44.53999 -3.78427 41237 ft 477 kts 33°
2026-04-26 11:39 44.75884 -3.57112 41208 ft 479 kts 33°
2026-04-26 11:39 44.97761 -3.35594 41210 ft 479 kts 33°
2026-04-26 11:40 45.19573 -3.13935 41218 ft 479 kts 33°
2026-04-26 11:40 45.42342 -2.95052 41239 ft 475 kts 21°
2026-04-26 11:42 46.37805 -2.30060 41224 ft 477 kts 29°
2026-04-26 11:43 46.57617 -2.12889 41215 ft 477 kts 29°
2026-04-26 11:43 46.64079 -2.07254 41218 ft 477 kts 29°
2026-04-26 11:44 46.70555 -2.01590 41211 ft 477 kts 29°
2026-04-26 11:44 46.81925 -1.91609 41213 ft 477 kts 29°
2026-04-26 11:45 46.93291 -1.81584 41209 ft 478 kts 29°
2026-04-26 11:45 47.04594 -1.71553 41207 ft 478 kts 29°
2026-04-26 11:46 47.15700 -1.60809 41218 ft 480 kts 40°
2026-04-26 11:46 47.20160 -1.53476 41222 ft 483 kts 52°
2026-04-26 11:46 47.24089 -1.45445 41227 ft 483 kts 52°
2026-04-26 11:47 47.31449 -1.30471 41216 ft 484 kts 52°
2026-04-26 11:47 47.36894 -1.19470 41210 ft 484 kts 52°
2026-04-26 11:48 47.40853 -1.11439 41207 ft 483 kts 52°
2026-04-26 11:48 47.44134 -1.04764 41210 ft 482 kts 52°
2026-04-26 11:49 47.48070 -0.96734 40885 ft 486 kts 52°
2026-04-26 11:49 47.50053 -0.92682 40245 ft 486 kts 52°
2026-04-26 11:49 47.51999 -0.88617 39785 ft 481 kts 55°
2026-04-26 11:50 47.53682 -0.84372 39347 ft 477 kts 60°
2026-04-26 11:50 47.55080 -0.79933 38914 ft 473 kts 67°
2026-04-26 11:50 47.56178 -0.75371 38395 ft 469 kts 69°
2026-04-26 11:50 47.57236 -0.70834 37942 ft 463 kts 69°
2026-04-26 11:51 47.58306 -0.66369 37523 ft 457 kts 68°
2026-04-26 11:51 47.59382 -0.61956 37120 ft 452 kts 68°
2026-04-26 11:51 47.61230 -0.54367 36392 ft 444 kts 68°
2026-04-26 11:51 47.63287 -0.45821 35578 ft 435 kts 68°
2026-04-26 11:52 47.64975 -0.38768 34898 ft 430 kts 68°
2026-04-26 11:52 47.65972 -0.34609 34501 ft 427 kts 68°
2026-04-26 11:52 47.66959 -0.30481 34095 ft 423 kts 68°
2026-04-26 11:52 47.67940 -0.26367 33653 ft 420 kts 68°
2026-04-26 11:53 47.68908 -0.22303 33246 ft 417 kts 68°
2026-04-26 11:53 47.69870 -0.18253 32836 ft 413 kts 68°
2026-04-26 11:53 47.70816 -0.14265 32446 ft 409 kts 68°
2026-04-26 11:54 47.72693 -0.06341 31675 ft 403 kts 68°
2026-04-26 11:54 47.73615 -0.02430 31291 ft 400 kts 68°
2026-04-26 11:54 47.74534 0.01473 30916 ft 398 kts 69°
2026-04-26 11:54 47.76343 0.09178 30135 ft 393 kts 69°
2026-04-26 11:55 47.78133 0.16808 29252 ft 389 kts 69°
2026-04-26 11:55 47.79898 0.24350 28410 ft 381 kts 67°
2026-04-26 11:55 47.81314 0.27964 28056 ft 365 kts 43°
2026-04-26 11:55 47.83265 0.30326 27843 ft 367 kts 31°
2026-04-26 11:56 47.87178 0.34284 27297 ft 377 kts 32°
2026-04-26 11:56 47.91455 0.38723 26701 ft 373 kts 32°
2026-04-26 11:56 47.95689 0.43155 26150 ft 370 kts 32°
2026-04-26 11:56 47.99886 0.47560 25579 ft 368 kts 33°
2026-04-26 11:57 48.04048 0.51938 25015 ft 365 kts 33°
2026-04-26 11:57 48.08189 0.56303 24481 ft 363 kts 33°
2026-04-26 11:57 48.12317 0.60665 23937 ft 361 kts 33°
2026-04-26 11:57 48.16387 0.64970 23306 ft 359 kts 33°
2026-04-26 11:58 48.20462 0.69287 22736 ft 356 kts 33°
2026-04-26 11:58 48.24486 0.73564 22158 ft 354 kts 33°
2026-04-26 11:58 48.28479 0.77813 21629 ft 350 kts 33°
2026-04-26 11:58 48.32443 0.82043 21087 ft 348 kts 33°
2026-04-26 11:59 48.35444 0.86251 20579 ft 340 kts 61°
2026-04-26 11:59 48.37517 0.92684 20117 ft 351 kts 61°
2026-04-26 11:59 48.39518 0.98415 19679 ft 359 kts 61°
2026-04-26 11:59 48.40945 1.02530 19320 ft 354 kts 62°
2026-04-26 12:00 48.42717 1.07653 18581 ft 356 kts 62°
2026-04-26 12:00 48.43863 1.10984 17891 ft 360 kts 62°
2026-04-26 12:00 48.45019 1.14344 17303 ft 362 kts 62°
2026-04-26 12:00 48.46177 1.17712 16733 ft 363 kts 62°
2026-04-26 12:01 48.47338 1.21102 16163 ft 364 kts 62°
2026-04-26 12:01 48.48500 1.24499 15594 ft 365 kts 62°
2026-04-26 12:01 48.49664 1.27900 15047 ft 366 kts 62°
2026-04-26 12:01 48.50827 1.31308 14472 ft 366 kts 62°
2026-04-26 12:02 48.51992 1.34713 13970 ft 364 kts 62°
2026-04-26 12:02 48.53150 1.38086 13541 ft 358 kts 62°
2026-04-26 12:02 48.54274 1.41354 13445 ft 343 kts 62°
2026-04-26 12:02 48.55348 1.44484 13341 ft 330 kts 62°
2026-04-26 12:03 48.56364 1.47457 13219 ft 317 kts 62°
2026-04-26 12:03 48.57931 1.50848 12649 ft 303 kts 37°
2026-04-26 12:03 48.61032 1.53193 11804 ft 300 kts 25°
2026-04-26 12:03 48.62900 1.54565 11479 ft 298 kts 26°
2026-04-26 12:04 48.64756 1.55945 11147 ft 295 kts 26°
2026-04-26 12:04 48.66577 1.57300 10978 ft 287 kts 26°
2026-04-26 12:04 48.68337 1.58609 10788 ft 281 kts 26°
2026-04-26 12:04 48.70089 1.59909 10530 ft 278 kts 26°
2026-04-26 12:05 48.71822 1.61193 10223 ft 277 kts 25°
2026-04-26 12:05 48.73549 1.62469 9904 ft 275 kts 26°
2026-04-26 12:05 48.75117 1.64031 9411 ft 270 kts 48°
2026-04-26 12:05 48.76052 1.66471 9051 ft 264 kts 65°
2026-04-26 12:06 48.76867 1.68978 8843 ft 268 kts 62°
2026-04-26 12:06 48.77750 1.71426 8651 ft 271 kts 61°
2026-04-26 12:06 48.78653 1.73900 8470 ft 273 kts 61°
2026-04-26 12:06 48.79569 1.76426 8248 ft 275 kts 61°
2026-04-26 12:07 48.80481 1.78972 8074 ft 273 kts 62°
2026-04-26 12:07 48.81381 1.81488 7864 ft 270 kts 62°
2026-04-26 12:07 48.82266 1.83972 7673 ft 266 kts 62°
2026-04-26 12:07 48.83145 1.86442 7477 ft 264 kts 62°
2026-04-26 12:08 48.84014 1.88879 7364 ft 261 kts 62°
2026-04-26 12:08 48.84870 1.91290 7315 ft 258 kts 62°
2026-04-26 12:08 48.85718 1.93690 7279 ft 260 kts 62°
2026-04-26 12:08 48.85996 1.94477 7279 ft 260 kts 62°
2026-04-26 12:09 48.86130 1.94857 7275 ft 260 kts 62°
2026-04-26 12:09 48.86700 1.96345 7265 ft 259 kts 57°
2026-04-26 12:09 48.87740 1.98578 7263 ft 255 kts 54°
2026-04-26 12:10 48.88759 2.00726 7256 ft 246 kts 54°
2026-04-26 12:10 48.89734 2.02779 7249 ft 233 kts 54°
2026-04-26 12:10 48.90665 2.04734 7270 ft 227 kts 54°
2026-04-26 12:10 48.91599 2.06695 7258 ft 228 kts 54°
2026-04-26 12:11 48.92521 2.08636 7260 ft 225 kts 54°
2026-04-26 12:11 48.93436 2.10563 7206 ft 225 kts 54°
2026-04-26 12:11 48.94372 2.12533 6863 ft 234 kts 54°
2026-04-26 12:11 48.95366 2.14629 6133 ft 255 kts 54°
2026-04-26 12:12 48.96433 2.16880 5610 ft 263 kts 54°
2026-04-26 12:12 48.97347 2.19089 5383 ft 242 kts 70°
2026-04-26 12:12 48.97717 2.21523 4943 ft 231 kts 82°
2026-04-26 12:12 48.97827 2.23083 4791 ft 218 kts 85°
2026-04-26 12:13 48.97998 2.26062 4910 ft 214 kts 85°
2026-04-26 12:13 48.98126 2.28295 4905 ft 216 kts 85°
2026-04-26 12:13 48.98227 2.30357 4581 ft 217 kts 86°
2026-04-26 12:13 48.98317 2.32527 4114 ft 209 kts 86°
2026-04-26 12:14 48.98448 2.34659 3753 ft 196 kts 83°
2026-04-26 12:14 48.98604 2.36508 3456 ft 188 kts 84°
2026-04-26 12:14 48.98692 2.38439 2885 ft 189 kts 86°
2026-04-26 12:14 48.98778 2.40478 2170 ft 194 kts 85°
2026-04-26 12:15 48.98872 2.42381 1948 ft 168 kts 84°
2026-04-26 12:15 48.98962 2.43992 1740 ft 150 kts 84°
2026-04-26 12:15 48.99062 2.45453 1558 ft 125 kts 85°
2026-04-26 12:15 48.99105 2.46218 1472 ft 120 kts 86°
2026-04-26 12:16 48.99153 2.47494 1324 ft 123 kts 86°
2026-04-26 12:16 48.99233 2.48840 1214 ft 133 kts 84°
2026-04-26 12:16 48.99259 2.49323 1194 ft 129 kts 85°
2026-04-26 12:16 48.99299 2.50489 955 ft 121 kts 84°
2026-04-26 12:17 48.99371 2.51310 836 ft 115 kts 85°
2026-04-26 12:17 48.99400 2.52215 775 ft 120 kts 86°
2026-04-26 12:17 48.99437 2.52900 740 ft 123 kts 83°
2026-04-26 12:18 48.99506 2.53895 554 ft 122 kts 85°
2026-04-26 12:18 48.99557 2.55133 404 ft 116 kts 84°
2026-04-26 12:18 48.99621 2.56325 363 ft 102 kts 83°
2026-04-26 12:18 48.99674 2.57224 360 ft 71 kts 85°
2026-04-26 12:19 48.99706 2.57837 362 ft 32 kts 85°
2026-04-26 12:19 48.99758 2.58158 364 ft 28 kts 65°
2026-04-26 12:19 48.99820 2.58362 365 ft 18 kts 65°
2026-04-26 12:19 48.99867 2.58519 364 ft 12 kts 65°
2026-04-26 12:20 48.99884 2.58577 363 ft 0 kts 65°
2026-04-26 12:20 48.99884 2.58578 363 ft 1 kts 65°
2026-04-26 12:20 48.99904 2.58645 367 ft 12 kts 65°
2026-04-26 12:20 48.99919 2.58696 367 ft 6 kts 65°
2026-04-26 12:21 48.99937 2.58722 359 ft 9 kts 26°
2026-04-26 12:21 48.99959 2.58769 367 ft 7 kts 85°
2026-04-26 12:21 48.99954 2.58897 362 ft 17 kts 86°
2026-04-26 12:21 48.99968 2.58974 363 ft 4 kts 47°
2026-04-26 12:22 49.00006 2.58997 367 ft 8 kts 11°
2026-04-26 12:22 49.00055 2.58944 367 ft 11 kts 317°
2026-04-26 12:22 49.00127 2.58892 364 ft 13 kts 354°
2026-04-26 12:22 49.00223 2.58880 359 ft 15 kts 355°
2026-04-26 12:23 49.00335 2.58865 358 ft 17 kts 355°
2026-04-26 12:23 49.00463 2.58850 362 ft 20 kts 355°
2026-04-26 12:23 49.00572 2.58836 364 ft 13 kts 355°
2026-04-26 12:23 49.00628 2.58840 361 ft 5 kts 26°
2026-04-26 12:24 49.00644 2.58880 365 ft 5 kts 75°
2026-04-26 12:24 49.00640 2.58929 363 ft 5 kts 104°
2026-04-26 12:24 49.00641 2.58953 363 ft 3 kts 86°
2026-04-26 12:25 49.00641 2.58964 363 ft 0 kts 86°